Погода в Островцах

Россия / Псковская область     58°24′24″N   27°42′06″E
темп.,
°C
ветер,
м/с
пор.,
м/с
влажн.,
%
обл.,
%
осадки,
мм/ч
давл.,
гПа
погр.,
м
19 апреля, пн
пн1900:00+6всв58705 0.0 102798
03:00+4всв47795 0.0 102782
06:00+4всв47865 0.0 102776
09:00+6всв477412 0.0 1027134
12:00+9всв356214 0.0 1026425
15:00+10св3556100 0.0 1026584
18:00+10в465471 0.0 1025506
21:00+7всв44656 0.0 102535
20 апреля, вт
вт2000:00+5в45805 0.0 102562
03:00+4в35875 0.0 102458
06:00+3всв46864 0.0 102371
09:00+5всв46664 0.0 1022167
12:00+7в46537 0.0 1020554
15:00+8в5855100 0.0 1018451
18:00+7в355799 0.0 1017511
21:00+5в336696 0.0 101627
21 апреля, ср
ср2100:00+4в2279100 0.0 101429
03:00+4всв338491 0.0 101255
06:00+2всв339219 0.0 101028
09:00+3с2384100 0.0 1008170
12:00+3сз5585100 0.0 1006308
15:00+4сз3675100 0.0 1004353
18:00+4ссз4581100 0.0 1004214
21:00+3ссв2288100 0.0 100438
22 апреля, чт
чт2200:00+3ю119092 0.0 100311
03:00+2ююз339037 0.0 100325
06:00+2ююз33905 0.0 100428
09:00+3ююз348169 0.0 1005107
12:00+6ю347182 0.0 1007307
15:00+6зюз6884100 0.2 1007395
18:00+4зюз249236 0.3 1010162
21:00+4ююз4477100 0.3 101046
23 апреля, пт
пт2300:00+3ююз3375100 0.0 101019
03:00+3ю3480100 0.0 100984
06:00+3ю3588100 0.1 1008112
09:00+3ююз348732 0.4 1007234
12:00+4юз24719 0.0 1008420
15:00+6ююз136098 0.0 1006542
18:00+5з446593 0.1 1006205
21:00+3сз2287100 0.2 100611